Regional Weather Roundup
Issued by NWS

Home | Current Version | Previous Version | Text Only | Print | Product List | Glossary On
Versions: 1 2 3 4 5 6 7 8 9 10 11 12 13 14 15 16 17 18 19 20 21 22 23 24 25 26 27 28 29 30 31 32 33 34 35 36 37 38 39 40 41 42 43 44 45 46 47 48 49 50
814
ASUS46 KSEW 090610
RWRWA

WASHINGTON REGIONAL WEATHER ROUNDUP
NATIONAL WEATHER SERVICE SEATTLE WA
1000 PM PST MON FEB 08 2016

NOTE:"FAIR" INDICATES FEW OR NO CLOUDS BELOW 12,000 FEET WITH NO
SIGNIFICANT WEATHER AND/OR OBSTRUCTIONS TO VISIBILITY.

WAZ505-507>509-090700-
SEATTLE, TACOMA, EVERETT, AND VICINITY

CITY           SKY/WX    TMP DP  RH WIND       PRES   REMARKS
EVERETT        CLEAR     44  41  89 N6        30.31F
6HR MIN TEMP:  44; 6HR MAX TEMP:  52;

BOEING FIELD   CLEAR     47  43  86 CALM      30.30F
6HR MIN TEMP:  45; 6HR MAX TEMP:  56;

RENTON         CLEAR     49  44  83 NW12      30.28F
6HR MIN TEMP:  49; 6HR MAX TEMP:  60;

SEATAC AIRPORT CLEAR     47  42  83 N12       30.29F
6HR MIN TEMP:  47; 6HR MAX TEMP:  59;

JBLM-MCCHORD   CLEAR     37  37 100 S2        30.28F
6HR MIN TEMP:  37; 6HR MAX TEMP:  57;

PUYALLUP       FAIR      39  39 100 CALM      30.27F
BREMERTON      CLEAR     48  45  87 NE15G24   30.32F
6HR MIN TEMP:  48; 6HR MAX TEMP:  57;

JBLM-FT LEWIS  CLEAR     41  41 100 CALM      30.27F FOG
6HR MIN TEMP:  40; 6HR MAX TEMP:  57;

TACOMA NARROWS CLEAR     47  43  86 N7        30.29F
6HR MIN TEMP:  47; 6HR MAX TEMP:  55;

$$

WAZ001-503-506-510-514-515-090700-
NORTH INTERIOR

CITY           SKY/WX    TMP DP  RH WIND       PRES   REMARKS
BELLINGHAM     CLEAR     39  38  96 CALM      30.33F FOG
6HR MIN TEMP:  37; 6HR MAX TEMP:  53;

FRIDAY HARBOR  CLEAR     46  42  86 VRB6      30.34F
6HR MIN TEMP:  42; 6HR MAX TEMP:  50;

EASTSOUND      CLEAR     46  45  93 N7        30.34F
PORT ANGELES   CLEAR     42  40  92 SE6       30.34F
6HR MIN TEMP:  39; 6HR MAX TEMP:  50;

EDIZ HOOK      FAIR      44  42  93 SE5       30.34F
6HR MIN TEMP:  44; 6HR MAX TEMP:  48;

PORT TOWNSEND  FAIR      37  37 100 CALM      30.34F FOG
NAS WHIDBEY    PTCLDY    39  39 100 SE3       30.37F
6HR MIN TEMP:  39; 6HR MAX TEMP:  51;

ARLINGTON      CLEAR     39  34  81 CALM      30.33F
6HR MIN TEMP:  39; 6HR MAX TEMP:  55;

BURLINGTON     CLEAR     46  43  87 NW10      30.33F
$$

WAZ020-022-039-040-504-511-512-090700-
SOUTHWEST INTERIOR

CITY           SKY/WX    TMP DP  RH WIND       PRES   REMARKS
SHELTON        CLEAR     37  36  96 CALM      30.26F
6HR MIN TEMP:  36; 6HR MAX TEMP:  60;

OLYMPIA        PTCLDY    38  37  97 CALM      30.28F FOG
6HR MIN TEMP:  37; 6HR MAX TEMP:  57;

CHEHALIS       FAIR      43  43 100 CALM      30.27F
KELSO          CLEAR     43  37  81 CALM      30.28F
6HR MIN TEMP:  43; 6HR MAX TEMP:  63;

VANCOUVER      CLEAR     40  36  86 CALM      30.26F
6HR MIN TEMP:  40; 6HR MAX TEMP:  60;

SCAPPOOSE, OR  CLEAR     44  42  93 W5        30.26S
6HR MIN TEMP:  42; 6HR MAX TEMP:  61;

PORTLAND, OR   CLEAR     50  38  63 E8        30.26F
6HR MIN TEMP:  50; 6HR MAX TEMP:  60;

$$

WAZ021-516-517-090700-
WASHINGTON COAST

CITY           SKY/WX    TMP DP  RH WIND       PRES   REMARKS
FORKS          CLEAR     55  42  61 NE10      30.18F
6HR MIN TEMP:  54; 6HR MAX TEMP:  67;

HOQUIAM        CLEAR     53  45  74 NE13      30.19F
6HR MIN TEMP:  53; 6HR MAX TEMP:  61;

ASTORIA, OR    CLEAR     53  45  74 E10       30.15F
6HR MIN TEMP:  51; 6HR MAX TEMP:  64;

$$

WAZ019-023-024-040-518-519-090700-
CASCADE MOUNTAINS AND COLUMBIA GORGE

CITY           SKY/WX    TMP DP  RH WIND       PRES   REMARKS
STAMPEDE PASS  NOT AVBL
TROUTDALE, OR  CLEAR     51  36  56 E28G41    30.26F
6HR MIN TEMP:  51; 6HR MAX TEMP:  56;

THE DALLES, OR CLEAR     37  32  82 E5        30.55R
6HR MIN TEMP:  37; 6HR MAX TEMP:  55;

$$

WAZ026-027-041>044-520-521-090700-
EAST SLOPES

CITY           SKY/WX    TMP DP  RH WIND       PRES   REMARKS
OMAK           CLEAR     23  21  92 CALM      30.58F
6HR MIN TEMP:  23; 6HR MAX TEMP:  35;

WENATCHEE      CLEAR     32  26  78 NW6       30.56S
6HR MIN TEMP:  32; 6HR MAX TEMP:  44;

ELLENSBURG     CLEAR     28  23  81 CALM      30.53S
6HR MIN TEMP:  28; 6HR MAX TEMP:  40;

YAKIMA         CLEAR     33  28  81 W8        30.53F
6HR MIN TEMP:  33; 6HR MAX TEMP:  52;

$$

WAZ028-034-035-090700-
COLUMBIA BASIN

CITY           SKY/WX    TMP DP  RH WIND       PRES   REMARKS
EPHRATA        CLEAR     37  29  72 NW12      30.53S
6HR MIN TEMP:  37; 6HR MAX TEMP:  45;

MOSES LAKE     CLEAR     33  29  85 N8        30.54S
6HR MIN TEMP:  33; 6HR MAX TEMP:  48;

PASCO          CLEAR     34  30  85 N3        30.55F
6HR MIN TEMP:  32; 6HR MAX TEMP:  52;

HERMISTON, OR  CLEAR     33  31  92 S5        30.53S
6HR MIN TEMP:  31; 6HR MAX TEMP:  50;

$$

WAZ036>038-090700-
NORTHEAST WASHINGTON

CITY           SKY/WX    TMP DP  RH WIND       PRES   REMARKS
SPOKANE GEIGER PTCLDY    36  30  79 NE5       30.51F
6HR MIN TEMP:  34; 6HR MAX TEMP:  47;

SPOKANE FELTS  PTCLDY    35  31  85 N3        30.54S
6HR MIN TEMP:  34; 6HR MAX TEMP:  50;

FAIRCHILD AFB  PTCLDY    37  30  76 NE5       30.50F
6HR MIN TEMP:  37; 6HR MAX TEMP:  46; 6HR PCP: TRACE;

COEURDALENE,ID CLEAR     34  28  80 NE9       30.51S
6HR MIN TEMP:  34; 6HR MAX TEMP:  46;

DEER PARK      PTCLDY    29  26  89 N6        30.53S
6HR MIN TEMP:  28; 6HR MAX TEMP:  45;

$$

WAZ029>033-090700-
SOUTHEAST WASHINGTON

CITY           SKY/WX    TMP DP  RH WIND       PRES   REMARKS
PULLMAN        PTCLDY    41  33  73 E7        30.51F
6HR MIN TEMP:  40; 6HR MAX TEMP:  53;

LEWISTON, ID   PTCLDY    43  35  73 SE3       30.51S
6HR MIN TEMP:  40; 6HR MAX TEMP:  56;

WALLA WALLA    CLEAR     35  32  88 SE5       30.52S
6HR MIN TEMP:  35; 6HR MAX TEMP:  48;

PENDLETON, OR  CLEAR     36  33  89 SE3       30.51S
6HR MIN TEMP:  36; 6HR MAX TEMP:  49;

$$




USA.gov is the U.S. government's official web portal to all federal, state and local government web resources and services.